Weather in Krynychky

Ukraine / Dnipropetrovsk Region     48˚22′24″N   34˚27′23″E
temp.,
°C
wind,
m/s
gust,
m/s
humid.,
%
clouds,
%
prec.,
mm/h
press.,
hPa
HPBL,
m
27 november, fri
fri2723:00+3˚ssw46919 0.0 1025119
02:00+2˚ssw489239 0.0 1025197
05:00+2˚ssw410898 0.0 1024218
08:00+2˚ssw510915 0.0 1023278
11:00+6˚ssw6107885 0.0 1022594
14:00+8˚sw7107293 0.0 1021919
17:00+7˚s4981100 0.0 1020253
20:00+6˚ssw5118968 0.0 1020248
28 november, sat
sat2823:00+5˚sw489316 0.0 1020194
02:00+5˚sw369556 0.0 1020199
05:00+3˚sw2392100 0.0 102028
08:00+5˚s2393100 0.0 102098
11:00+8˚s61186100 0.1 1020562
14:00+9˚s61277100 0.2 1019623
17:00+8˚sse71275100 0.0 1019483
20:00+8˚sse6127499 0.1 1020419
29 november, sun
sun2923:00+8˚sse61188100 0.1 1019351
02:00+7˚sse61094100 0.1 1019242
05:00+7˚sse6118799 0.0 1018371
08:00+7˚se71185100 0.0 1019326
11:00+9˚sse71078100 0.0 1019630
14:00+10˚sse6975100 0.1 1019693
17:00+9˚sse61284100 0.1 1019543
20:00+8˚sse61291100 0.1 1020409
30 november, mon
mon3023:00+7˚sse51188100 0.4 1020440
02:00+7˚sse4992100 1.3 1021437
05:00+7˚sse4983100 0.2 1021415
08:00+6˚se4880100 0.2 1022396
11:00+7˚se5777100 0.0 1022503
14:00+7˚ese5875100 0.0 1022548
17:00+5˚e5108397 0.0 1022461
20:00+4˚e4108397 0.0 1023438
1 december, tue
tue123:00+3˚ene4885100 0.0 1023271
02:00+5˚ene4979100 0.0 1022513
05:00+4˚e5976100 0.0 1023504
08:00+4˚e5973100 0.0 1023534
11:00+3˚e6869100 0.0 1024622
14:00+4˚e686899 0.0 1023865
17:00+3˚e5971100 0.0 1023848
20:00+3˚e61075100 0.0 1024760